Location: ?????????
(53.2086°N, 54.0693°E)
Time: 03:22:21
(UTC+00:00)

USA 215 - Pass Details

Date: 08 December 2019
Orbit: 1099 x 1109 km, 123.0° (Epoch: 03 January)

Event Time Altitude Azimuth Distance (km) Brightness Sun altitude
Exits shadow 15:12:17 52° 49° (NE) 1,351 3.4 -26.4°
Maximum altitude 15:13:51 69° 350° (N) 1,176 3.3 -26.6°
Drops below altitude 10° 15:20:21 10° 269° (W) 2,966 6.5 -27.6°
Sets 15:22:51 0° 267° (W) 3,925 7.4 -28.0°
